Location: Goldmont Forest
(38.0233°N, 120.2524°W)
Time: 22:52:14
(UTC+00:00)

Cosmos 1943 Rocket - Pass Details

Date: 05 August 2024
Orbit: 813 x 841 km, 71.0° (Epoch: 08 September)

Event Time Altitude Azimuth Distance (km) Brightness Sun altitude
Rises 12:19:58 0° 337° (NNW) 3,350 5.4 -9.3°
Reaches altitude 10° 12:22:24 10° 338° (NNW) 2,411 4.7 -8.9°
Maximum altitude 12:27:56 87° 67° (ENE) 819 2.2 -8.0°
Drops below altitude 10° 12:33:25 10° 158° (SSE) 2,392 4.5 -7.0°
Sets 12:35:49 0° 159° (SSE) 3,320 5.2 -6.6°
